Voltar ao catálogo

NAVSTAR 55

USA 178

AtivoNavegaçãoHEO
NORAD 28361·PAYLOAD·🇺🇸 United States

Lançado Jun 23, 2004 de Cape Canaveral Space Force Station

Loading…

Próximas Passagens (próximas 24 horas)

TLE

AtualizadoSource: Space-Track

Época: Sep 14, 2026, 03:54 UTC

1 28361U 04023A   26257.16291522 -.00000019  00000-0  00000-0 0  9990
2 28361  54.9296  83.1184 0158691 304.1786 252.7507  2.00561062162820

Acompanhe NAVSTAR 55 em tempo real com AllMySat

Download on the App Store